Regional Weather Roundup
Issued by NWS

Home | Current Version | Previous Version | Graphics & Text | Print | Product List | Glossary On
Versions: 1 2 3 4 5 6 7 8 9 10 11 12 13 14 15 16 17 18 19 20 21 22 23 24 25 26 27 28 29 30 31 32 33 34 35 36 37 38 39 40 41 42 43 44 45 46 47 48 49 50
000
ASUS43 KDMX 110103
RWRIA

WEATHER ROUNDUP FOR IOWA
NATIONAL WEATHER SERVICE DES MOINES IA
700 PM CST WED FEB 10 2016

NOTE: "FAIR" INDICATES FEW OR NO CLOUDS BELOW 12,000 FEET WITH NO
SIGNIFICANT WEATHER AND/OR OBSTRUCTIONS TO VISIBILITY.

* - THESE STATIONS ARE NOT NWS STATIONS...THUS NOT UNDER NWS
QUALITY CONTROL.  THEY ALSO DO NOT REPORT WEATHER SUCH
AS PRECIPITATION OR FOG.

IAZ001>003-012>014-020>022-031>034-043>046-110200-
   NORTHWEST IOWA

CITY           SKY/WX    TMP DP  RH WIND       PRES   REMARKS
CARROLL *      CLOUDY    16  12  86 E12       30.09R WCI   3
CHEROKEE *     CLOUDY    16  12  86 E9        30.13R WCI   4
DENISON *      CLOUDY    18  14  86 E10G18    30.06R WCI   6
LE MARS *      CLOUDY    18  16  93 NE9       30.13R WCI   6
ORANGE CITY *  CLOUDY    16  12  86 E8        30.10R WCI   5
SHELDON *      CLOUDY    14  10  85 E13       30.11R WCI   0
SIOUX CITY     CLOUDY    21  14  74 E10       30.11R WCI  10
SPENCER        CLOUDY    13   7  77 NE12      30.14R WCI  -1
STORM LAKE *   CLOUDY    14  12  92 E13       30.10R WCI   0
$$

IAZ055>058-069>071-079>083-090>094-110200-
   SOUTHWEST IOWA

CITY           SKY/WX    TMP DP  RH WIND       PRES   REMARKS
ATLANTIC *     CLOUDY    21  18  86 E14       30.05R WCI   8
AUDUBON *      CLOUDY    18  14  86 E12       30.06R WCI   5
CLARINDA *     CLOUDY    32  25  74 NE13      30.04R WCI  22
COUNCIL BLFS * CLOUDY    25  21  86 NE12      30.03R WCI  14
CRESTON *      CLOUDY    21  18  86 E16       30.05R WCI   7
HARLAN  *      CLOUDY    21  18  86 NE12      30.10R WCI   9
LAMONI         CLOUDY    23  18  81 E9        30.05R WCI  13
RED OAK *      CLOUDY    28  25  86 E17       30.03R WCI  16
SHENANDOAH *   PTCLDY    32  28  86 NE8       30.02R WCI  25
$$

IAZ047>049-059>061-072>074-084-110200-
   CENTRAL IOWA

CITY           SKY/WX    TMP DP  RH WIND       PRES   REMARKS
AMES           CLOUDY    14   7  73 NE7       30.14R WCI   4
ANKENY *       CLOUDY    18  12  79 NE7       30.14R WCI   8
BOONE *        CLOUDY    14   9  79 NE10      30.11R WCI   1
CHARITON *     CLOUDY    19  16  86 E10       30.09R WCI   8
DES MOINES     FLURRIES  19  11  70 E6        30.12R WCI  11
GRINNELL*      CLOUDY    16  12  86 NE8       30.11S WCI   5
KNOXVILLE *    CLOUDY    19  14  79 E7        30.09S WCI  10
MARSHALLTOWN   CLOUDY    14   6  70 NE7       30.13R WCI   4
NEWTON *       CLOUDY    16  12  86 E8        30.12R WCI   5
PELLA *        CLOUDY    19  13  79 E3        30.13R
$$

IAZ004>006-015-016-023>025-035-036-110200-
   NORTH CENTRAL IOWA

CITY           SKY/WX    TMP DP  RH WIND       PRES   REMARKS
ALGONA *       CLOUDY    14   7  73 E5        30.14R WCI   6
CLARION *      CLOUDY    12   3  67 E7        30.14R WCI   2
ESTHERVILLE    CLOUDY    11   5  77 NE6       30.15R WCI   1
FORT DODGE *   CLOUDY    12   5  73 NE7       30.15R WCI   2
MASON CITY     CLOUDY     6  -2  69 CALM      30.15R
FOREST CITY *    N/A      9   1  72 CALM      30.14R
WEBSTER CITY * CLOUDY    12   7  79 NE9       30.12R WCI   0
IOWA FALLS *   CLOUDY    14   7  73 NE8       30.14R WCI   3
$$

IAZ007>011-017>019-026>030-037>042-050>054-066-110200-
   NORTHEAST IOWA

CITY           SKY/WX    TMP DP  RH WIND       PRES   REMARKS
CEDAR RAPIDS   CLOUDY    15   4  61 N8        30.13R WCI   4
CHARLES CITY * CLOUDY     7  -4  61 N7        30.13R WCI  -5
CLINTON *      PTCLDY    10   3  73 N7        30.14R WCI  -1
DECORAH *      CLEAR      7  -4  61 N6        30.11R WCI  -3
DUBUQUE        CLEAR      9   1  70 NW8       30.11R WCI  -3
MONTICELLO *   CLOUDY    12   3  67 NW6       30.14R WCI   3
OELWEIN *      PTCLDY     7   0  72 NW6       30.13R WCI  -3
WATERLOO       CLEAR      8  -2  63 NW5       30.15R WCI   0
$$

IAZ064-065-067-068-078-110200-
   EAST CENTRAL IOWA

CITY           SKY/WX    TMP DP  RH WIND       PRES   REMARKS
DAVENPORT      CLEAR     14   3  61 NW6       30.14R WCI   5
IOWA CITY      CLOUDY    18   4  54 NW6       30.16R WCI  10
MT. PLEASANT * FLURRIES  21  16  80 CALM      30.14R
MUSCATINE *    CLOUDY    19   5  53 NW3       30.16R
QUAD CITIES    PTCLDY    17   2  51 NW6       30.14R WCI   9
$$

IAZ062-063-075>077-085>089-095>099-110200-
   SOUTHEAST IOWA

CITY           SKY/WX    TMP DP  RH WIND       PRES   REMARKS
BURLINGTON     CLOUDY    18  14  84 CALM      30.13R
FAIRFIELD *    CLOUDY    18  12  79 E5        30.12S WCI  11
FORT MADISON * FLURRIES  18  14  86 CALM      30.14S
KEOKUK *       FLURRIES  19  16  86 E3        30.13S
OSKALOOSA *    FLURRIES  18  14  86 E5        30.12R WCI  11
OTTUMWA        CLOUDY    18  14  84 E6        30.12R WCI  10
WASHINGTON *   CLOUDY    18  10  73 N5        30.15R WCI  11
$$

ABBREVIATIONS USED IN REMARKS
   TC - TEMPERATURES IN CELSIUS
  WCI - WIND CHILL INDEX
   HX - HEAT INDEX
  VSB - VISIBILITY
$$




USA.gov is the U.S. government's official web portal to all federal, state and local government web resources and services.